Cleveland, Oklahoma, United States (74020)
Lat: 36.31N, Lon: 96.46W
Wx Zone: OKZ059
Local Info
Past Weather Observations for Today

NOTE: This archive is for the closest National Weather Service station to Cleveland. Information may differ from the station used for current weather conditions.

Click here for Long-term Archive

Time Weather Temperature Dewpoint Humidity Pressure Winds Precip Visibility
13:35
Clear
55°F / 13°C 32°F / 0°C 41% 29.95 in
(1014 mb)
NW 15 mph
(NW 24 kph)
- 10SM
13:15
Clear
55°F / 13°C 34°F / 1°C 44% 29.95 in
(1014 mb)
W 16.1 mph
(W 26 kph)
- 10SM
12:55
Clear
54°F / 12°C 34°F / 1°C 47% 29.95 in
(1014 mb)
W 16.1 mph
(W 26 kph)
- 10SM
12:35
Clear
54°F / 12°C 34°F / 1°C 47% 29.95 in
(1014 mb)
WNW 15 mph
(WNW 24 kph)
- 10SM
11:55
Clear
52°F / 11°C 34°F / 1°C 50% 29.98 in
(1015 mb)
W 11.5 mph
(W 19 kph)
- 10SM
11:35
Clear
50°F / 10°C 34°F / 1°C 54% 29.98 in
(1015 mb)
W 13.8 mph
(W 22 kph)
- 10SM
11:15
Clear
50°F / 10°C 34°F / 1°C 54% 29.98 in
(1015 mb)
W 15 mph
(W 24 kph)
- 10SM
10:55
Clear
48°F / 9°C 32°F / 0°C 54% 29.98 in
(1015 mb)
WNW 13.8 mph
(WNW 22 kph)
- 10SM
10:35
Clear
46°F / 8°C 32°F / 0°C 57% 29.98 in
(1015 mb)
W 16.1 mph
(W 26 kph)
- 10SM
10:15
Clear
45°F / 7°C 32°F / 0°C 61% 29.98 in
(1015 mb)
W 13.8 mph
(W 22 kph)
- 10SM
09:55
Clear
45°F / 7°C 32°F / 0°C 61% 29.98 in
(1015 mb)
W 13.8 mph
(W 22 kph)
- 10SM
09:35
Clear
43°F / 6°C 32°F / 0°C 66% 29.98 in
(1015 mb)
W 11.5 mph
(W 19 kph)
- 10SM
09:15
Clear
41°F / 5°C 32°F / 0°C 70% 29.95 in
(1014 mb)
W 12.7 mph
(W 20 kph)
- 10SM
08:55
Clear
37°F / 3°C 32°F / 0°C 81% 29.95 in
(1014 mb)
W 11.5 mph
(W 19 kph)
- 10SM
08:35
Clear
37°F / 3°C 32°F / 0°C 81% 29.95 in
(1014 mb)
W 10.4 mph
(W 17 kph)
- 10SM
07:55
Clear
34°F / 1°C 32°F / 0°C 93% 29.92 in
(1013 mb)
SSW 10.4 mph
(SSW 17 kph)
- 10SM
07:35
Clear
32°F / 0°C 30°F / -1°C 93% 29.92 in
(1013 mb)
SSW 9.2 mph
(SSW 15 kph)
- 10SM
07:15
Clear
32°F / 0°C 30°F / -1°C 93% 29.92 in
(1013 mb)
SSW 6.9 mph
(SSW 11 kph)
- 10SM
06:55
Clear
32°F / 0°C 30°F / -1°C 93% 29.92 in
(1013 mb)
SSW 9.2 mph
(SSW 15 kph)
- 10SM
06:35
Clear
32°F / 0°C 32°F / 0°C 100% 29.89 in
(1012 mb)
SSW 6.9 mph
(SSW 11 kph)
- 10SM
05:55
Clear
32°F / 0°C 32°F / 0°C 100% 29.89 in
(1012 mb)
SSW 6.9 mph
(SSW 11 kph)
- 10SM
05:35
Clear
32°F / 0°C 32°F / 0°C 100% 29.86 in
(1011 mb)
W 5.8 mph
(W 9 kph)
- 10SM
05:15
Clear
34°F / 1°C 32°F / 0°C 93% 29.86 in
(1011 mb)
W 8.1 mph
(W 13 kph)
- 10SM
04:55
Clear
34°F / 1°C 32°F / 0°C 93% 29.86 in
(1011 mb)
W 6.9 mph
(W 11 kph)
- 10SM
04:35
Clear
34°F / 1°C 32°F / 0°C 93% 29.86 in
(1011 mb)
W 8.1 mph
(W 13 kph)
- 10SM
04:15
Clear
34°F / 1°C 32°F / 0°C 93% 29.83 in
(1010 mb)
W 5.8 mph
(W 9 kph)
- 10SM
03:55
Clear
34°F / 1°C 32°F / 0°C 93% 29.83 in
(1010 mb)
W 5.8 mph
(W 9 kph)
- 10SM
03:35
Clear
34°F / 1°C 34°F / 1°C 100% 29.83 in
(1010 mb)
W 6.9 mph
(W 11 kph)
- 10SM
03:15
Clear
34°F / 1°C 34°F / 1°C 100% 29.83 in
(1010 mb)
W 6.9 mph
(W 11 kph)
- 10SM
02:55
Clear
36°F / 2°C 34°F / 1°C 93% 29.83 in
(1010 mb)
W 4.6 mph
(W 7 kph)
- 10SM
02:35
Clear
36°F / 2°C 34°F / 1°C 93% 29.8 in
(1009 mb)
WNW 5.8 mph
(WNW 9 kph)
- 10SM
02:15
Clear
36°F / 2°C 34°F / 1°C 93% 29.8 in
(1009 mb)
WNW 6.9 mph
(WNW 11 kph)
- 10SM
01:55
Clear
36°F / 2°C 36°F / 2°C 100% 29.8 in
(1009 mb)
W 4.6 mph
(W 7 kph)
- 10SM
01:35
Clear
36°F / 2°C 36°F / 2°C 100% 29.77 in
(1008 mb)
WNW 6.9 mph
(WNW 11 kph)
- 10SM
01:15
Clear
37°F / 3°C 36°F / 2°C 93% 29.77 in
(1008 mb)
W 4.6 mph
(W 7 kph)
- 10SM
00:55
Clear
37°F / 3°C 37°F / 3°C 100% 29.77 in
(1008 mb)
W 4.6 mph
(W 7 kph)
- 10SM
00:35
Clear
39°F / 4°C 37°F / 3°C 93% 29.77 in
(1008 mb)
WNW 3.5 mph
(WNW 6 kph)
- 10SM
00:15
Clear
39°F / 4°C 37°F / 3°C 93% 29.77 in
(1008 mb)
W 5.8 mph
(W 9 kph)
- 10SM
Time Weather Temperature Dewpoint Humidity Pressure Winds Precip Visibility


Weather for websites

WeatherForYou.com, LLC is not responsible for any damages or problems caused by this service. Current weather conditions are obtained from the closest station including government and personal stations which may have varying degrees of accuracy. Weather forecasts are derived from the NOAA NDFD. Like all things, this site belongs to Jesus Christ... He just trusts me to maintain it. If you have any questions or comments email webmaster@weatherforyou.com

Copyright © 2014, WeatherForYou.com LLC. All rights reserved.